Location: Altleiningen
(49.5078°N, 8.0741°E)
Time: 05:12:22
(UTC+00:00)

Cosmos 2360 Rocket - Pass Details

Date: 03 March 2021
Orbit: 832 x 846 km, 71.0° (Epoch: 11 April)

Event Time Altitude Azimuth Distance (km) Brightness Sun altitude
Rises 20:22:18 0° 245° (WSW) 3,387 5.8 -30.4°
Reaches altitude 10° 20:25:05 10° 257° (WSW) 2,458 5.1 -30.8°
Maximum altitude 20:29:53 28° 315° (NW) 1,541 4.1 -31.5°
Drops below altitude 10° 20:34:44 10° 14° (NNE) 2,476 4.8 -32.2°
Sets 20:37:33 0° 26° (NNE) 3,417 5.4 -32.6°
